Location: Krakow
(50.0830°N, 19.9170°E)
Time: 08:08:17
(UTC+02:00)

Tiros 1 despin weight - Pass Details

Date: 24 March 2026
Orbit: 555 x 592 km, 48.2° (Epoch: 18 April)

Event Time Altitude Azimuth Distance (km) Brightness Sun altitude
Rises 04:24:32 0° 269° (W) 2,823 - -11.9°
Reaches altitude 10° 04:26:50 10° 267° (W) 1,919 - -11.6°
Exits shadow 04:27:46 16° 265° (W) 1,558 ? -11.4°
Maximum altitude 04:31:12 69° 184° (S) 632 ? -10.9°
Drops below altitude 10° 04:35:33 10° 102° (ESE) 1,903 ? -10.2°
Sets 04:37:49 0° 100° (E) 2,796 ? -9.9°
